GW0353 Weather Reports


time (UTC)temp
C
wind
direction
speed
KPH
gust
KPH
rain 1hr
cm
rain 24hr
cm
rain mn
cm
humidity
%
barometer
mb
20220930171059 15 44 3.2 8.0 0.00 0.00 0.00 39 1024.1
20220930170559 15 28 3.2 6.4 0.00 0.00 0.00 41 1024.2
20220930170126 15 35 3.2 6.4 0.00 0.00 0.00 41 1024.3
20220930165602 15 260 1.6 6.4 0.00 0.00 0.00 42 1024.3
20220930165058 15 50 1.6 6.4 0.00 0.00 0.00 43 1024.3
20220930164605 14 33 3.2 6.4 0.00 0.00 0.00 43 1024.2
20220930164101 14 39 1.6 4.8 0.00 0.00 0.00 45 1024.3
20220930163559 14 26 1.6 4.8 0.00 0.00 0.00 44 1024.3
20220930163101 14 349 0.0 4.8 0.00 0.00 0.00 44 1024.3
20220930162556 13 30 3.2 4.8 0.00 0.00 0.00 48 1024.3
20220930162102 13 48 1.6 4.8 0.00 0.00 0.00 46 1024.4
20220930161602 12 0 1.6 3.2 0.00 0.00 0.00 48 1024.4
20220930161056 12 27 1.6 3.2 0.00 0.00 0.00 51 1024.4
20220930160600 12 72 0.0 3.2 0.00 0.00 0.00 52 1024.3
20220930160104 12 0 0.0 3.2 0.00 0.00 0.00 54 1024.5
20220930155559 11 0 0.0 0.0 0.00 0.00 0.00 53 1024.4
20220930155059 11 0 0.0 0.0 0.00 0.00 0.00 54 1024.5
20220930154602 10 0 0.0 1.6 0.00 0.00 0.00 56 1024.5
20220930154059 10 0 0.0 1.6 0.00 0.00 0.00 58 1024.5
20220930153600 10 0 0.0 1.6 0.00 0.00 0.00 61 1024.5
20220930153108 9 104 0.0 1.6 0.00 0.00 0.00 63 1024.6
20220930152559 9 0 0.0 1.6 0.00 0.00 0.00 64 1024.7
20220930152100 8 0 0.0 0.0 0.00 0.00 0.00 67 1024.6
20220930151614 7 0 0.0 0.0 0.00 0.00 0.00 68 1024.8
20220930151059 6 0 0.0 0.0 0.00 0.00 0.00 72 1024.9
20220930150559 5 0 0.0 0.0 0.00 0.00 0.00 75 1024.9
20220930150121 4 0 0.0 0.0 0.00 0.00 0.00 77 1024.9
20220930145602 3 0 0.0 0.0 0.00 0.00 0.00 76 1024.8
20220930145058 3 0 0.0 0.0 0.00 0.00 0.00 74 1024.7
20220930144601 3 0 0.0 0.0 0.00 0.00 0.00 76 1024.7
20220930144058 3 0 0.0 1.6 0.00 0.00 0.00 76 1024.9
20220930143559 3 0 0.0 1.6 0.00 0.00 0.00 75 1024.9
20220930143101 3 0 0.0 1.6 0.00 0.00 0.00 76 1024.9
20220930142610 3 0 0.0 0.0 0.00 0.00 0.00 76 1024.9
20220930142058 3 0 0.0 0.0 0.00 0.00 0.00 77 1024.7
20220930141608 3 0 0.0 0.0 0.00 0.00 0.00 73 1024.7
20220930141059 3 0 0.0 1.6 0.00 0.00 0.00 73 1024.6
20220930140604 3 180 0.0 3.2 0.00 0.00 0.00 73 1024.6
20220930140115 3 160 0.0 3.2 0.00 0.00 0.00 75 1024.6
20220930135559 3 152 1.6 3.2 0.00 0.00 0.00 73 1024.5
20220930135059 3 164 0.0 1.6 0.00 0.00 0.00 75 1024.5
20220930134558 3 0 0.0 1.6 0.00 0.00 0.00 74 1024.6
20220930134100 3 164 0.0 1.6 0.00 0.00 0.00 74 1024.6
20220930133559 3 158 0.0 1.6 0.00 0.00 0.00 75 1024.6
20220930133059 3 163 0.0 1.6 0.00 0.00 0.00 73 1024.7
20220930132559 2 158 0.0 1.6 0.00 0.00 0.00 74 1024.6
20220930132059 3 0 0.0 0.0 0.00 0.00 0.00 74 1024.6
20220930131634 3 0 0.0 0.0 0.00 0.00 0.00 73 1024.7
20220930131102 3 0 0.0 0.0 0.00 0.00 0.00 71 1024.5
20220930130605 3 0 0.0 0.0 0.00 0.00 0.00 70 1024.5
20220930130103 4 0 0.0 0.0 0.00 0.00 0.00 70 1024.5
20220930125558 4 0 0.0 1.6 0.00 0.00 0.00 71 1024.5
20220930125058 4 0 0.0 3.2 0.00 0.00 0.00 72 1024.6
20220930124609 4 174 0.0 3.2 0.00 0.00 0.00 70 1024.7
20220930124058 4 0 1.6 3.2 0.00 0.00 0.00 71 1024.8
20220930123558 4 151 0.0 1.6 0.00 0.00 0.00 71 1024.7
20220930123102 3 0 0.0 1.6 0.00 0.00 0.00 72 1024.8
20220930122558 3 177 0.0 1.6 0.00 0.00 0.00 71 1024.7
20220930122110 3 181 0.0 1.6 0.00 0.00 0.00 71 1024.6
20220930121558 3 0 0.0 1.6 0.00 0.00 0.00 71 1024.6
20220930121100 4 0 0.0 1.6 0.00 0.00 0.00 70 1024.4
20220930120558 4 0 0.0 1.6 0.00 0.00 0.00 70 1024.5
20220930120100 5 0 0.0 1.6 0.00 0.00 0.00 70 1024.5
20220930115557 5 0 0.0 1.6 0.00 0.00 0.00 71 1024.6
20220930115059 5 169 0.0 1.6 0.00 0.00 0.00 69 1024.5
20220930114605 5 0 0.0 0.0 0.00 0.00 0.00 68 1024.6
20220930114100 5 0 0.0 3.2 0.00 0.00 0.00 68 1024.5
20220930113559 5 0 0.0 3.2 0.00 0.00 0.00 69 1024.4
20220930113059 5 0 0.0 3.2 0.00 0.00 0.00 67 1024.4
20220930112558 5 0 0.0 1.6 0.00 0.00 0.00 68 1024.4
20220930112057 5 0 0.0 1.6 0.00 0.00 0.00 68 1024.4
20220930111603 5 166 0.0 1.6 0.00 0.00 0.00 67 1024.4
20220930111101 5 0 0.0 3.2 0.00 0.00 0.00 67 1024.6
20220930110557 5 0 0.0 3.2 0.00 0.00 0.00 67 1024.5
20220930110100 5 171 0.0 1.6 0.00 0.00 0.00 65 1024.6
20220930105606 5 224 0.0 1.6 0.00 0.00 0.00 68 1024.5
20220930105058 5 0 0.0 1.6 0.00 0.00 0.00 68 1024.6
20220930104607 5 0 0.0 3.2 0.00 0.00 0.00 65 1024.4
20220930104059 5 0 0.0 4.8 0.00 0.00 0.00 63 1024.6
20220930103558 6 0 1.6 4.8 0.00 0.00 0.00 64 1024.6
20220930103102 6 0 1.6 3.2 0.00 0.00 0.00 63 1024.7
20220930102558 6 143 0.0 1.6 0.00 0.00 0.00 64 1024.8
20220930102058 6 0 0.0 1.6 0.00 0.00 0.00 59 1024.8
20220930101600 6 0 0.0 1.6 0.00 0.00 0.00 60 1024.7
20220930101058 7 0 0.0 1.6 0.00 0.00 0.00 60 1024.8
20220930100557 6 152 0.0 0.0 0.00 0.00 0.00 59 1024.6
20220930100101 7 0 0.0 0.0 0.00 0.00 0.00 59 1024.6
20220930095557 7 0 0.0 1.6 0.00 0.00 0.00 59 1024.6
20220930095102 7 0 0.0 1.6 0.00 0.00 0.00 58 1024.6
20220930094654 7 0 0.0 1.6 0.00 0.00 0.00 59 1024.7
20220930094057 7 162 0.0 1.6 0.00 0.00 0.00 58 1024.8
20220930093556 7 0 0.0 3.2 0.00 0.00 0.00 58 1024.9
20220930093128 8 143 0.0 3.2 0.00 0.00 0.00 56 1024.9
20220930092604 8 159 0.0 3.2 0.00 0.00 0.00 56 1024.8
20220930092059 8 0 0.0 3.2 0.00 0.00 0.00 55 1024.8
20220930091607 8 0 0.0 3.2 0.00 0.00 0.00 55 1024.9
20220930091058 8 0 0.0 6.4 0.00 0.00 0.00 55 1024.7
20220930090558 8 159 1.6 6.4 0.00 0.00 0.00 55 1024.8
20220930090103 8 165 1.6 3.2 0.00 0.00 0.00 53 1024.8
20220930085558 8 157 0.0 1.6 0.00 0.00 0.00 53 1024.7
20220930085058 8 0 0.0 1.6 0.00 0.00 0.00 54 1024.7
20220930084600 8 0 0.0 1.6 0.00 0.00 0.00 54 1024.7
20220930084059 8 0 0.0 1.6 0.00 0.00 0.00 54 1024.7
20220930083557 8 0 0.0 1.6 0.00 0.00 0.00 54 1024.8
20220930083113 8 168 0.0 1.6 0.00 0.00 0.00 54 1024.9
20220930082557 8 0 0.0 1.6 0.00 0.00 0.00 55 1024.9
20220930082059 8 0 0.0 1.6 0.00 0.00 0.00 55 1024.8
20220930081600 8 0 0.0 1.6 0.00 0.00 0.00 53 1024.7
20220930081059 8 0 0.0 1.6 0.00 0.00 0.00 53 1024.7
20220930080557 8 157 0.0 1.6 0.00 0.00 0.00 53 1024.9
20220930080102 8 0 0.0 1.6 0.00 0.00 0.00 53 1024.8
20220930075558 8 0 0.0 3.2 0.00 0.00 0.00 52 1024.9
20220930075103 8 0 0.0 3.2 0.00 0.00 0.00 52 1024.9
20220930074600 8 0 0.0 3.2 0.00 0.00 0.00 52 1024.8
20220930074059 8 155 0.0 3.2 0.00 0.00 0.00 52 1024.9
20220930073559 8 173 1.6 3.2 0.00 0.00 0.00 52 1025.0
20220930073100 8 210 0.0 3.2 0.00 0.00 0.00 52 1025.1
20220930072558 8 152 1.6 3.2 0.00 0.00 0.00 53 1025.1
20220930072058 8 0 0.0 3.2 0.00 0.00 0.00 52 1025.1
20220930071558 8 0 0.0 1.6 0.00 0.00 0.00 52 1025.1
20220930071059 8 0 0.0 1.6 0.00 0.00 0.00 53 1025.1
20220930070558 9 0 0.0 3.2 0.00 0.00 0.00 51 1025.2
20220930070113 9 0 0.0 3.2 0.00 0.00 0.00 51 1025.2
20220930065558 9 143 0.0 3.2 0.00 0.00 0.00 52 1025.3
20220930065058 10 0 0.0 3.2 0.00 0.00 0.00 51 1025.2
20220930064603 10 161 1.6 3.2 0.00 0.00 0.00 50 1025.3
20220930064104 10 152 0.0 4.8 0.00 0.00 0.00 51 1025.3
20220930063558 10 0 0.0 4.8 0.00 0.00 0.00 50 1025.3
20220930063104 10 156 3.2 4.8 0.00 0.00 0.00 51 1025.3
20220930062557 10 152 3.2 4.8 0.00 0.00 0.00 49 1025.3
20220930062102 10 160 0.0 3.2 0.00 0.00 0.00 50 1025.3
20220930061559 10 152 0.0 3.2 0.00 0.00 0.00 50 1025.3
20220930061101 10 158 0.0 0.0 0.00 0.00 0.00 50 1025.3
20220930060557 10 0 0.0 3.2 0.00 0.00 0.00 49 1025.3
20220930060139 10 0 0.0 3.2 0.00 0.00 0.00 47 1025.3
20220930055558 10 250 1.6 3.2 0.00 0.00 0.00 47 1025.0
20220930055113 10 0 0.0 4.8 0.00 0.00 0.00 46 1025.1
20220930054559 10 0 0.0 8.0 0.00 0.00 0.00 45 1025.0
20220930054056 10 212 3.2 8.0 0.00 0.00 0.00 45 1024.9
20220930053556 10 153 1.6 3.2 0.00 0.00 0.00 45 1024.9
20220930053102 10 0 0.0 1.6 0.00 0.00 0.00 45 1024.9
20220930052601 11 0 0.0 4.8 0.00 0.00 0.00 44 1024.9
20220930052057 11 0 0.0 4.8 0.00 0.00 0.00 44 1024.9
20220930051559 11 158 0.0 3.2 0.00 0.00 0.00 43 1024.9
20220930051058 11 146 0.0 3.2 0.00 0.00 0.00 43 1024.8
20220930050558 11 148 0.0 4.8 0.00 0.00 0.00 43 1024.7
20220930050115 11 160 1.6 4.8 0.00 0.00 0.00 43 1024.8
20220930045557 11 186 0.0 3.2 0.00 0.00 0.00 43 1024.9
20220930045058 11 161 0.0 3.2 0.00 0.00 0.00 43 1024.9
20220930044618 11 155 1.6 3.2 0.00 0.00 0.00 43 1024.9
20220930044057 11 0 0.0 3.2 0.00 0.00 0.00 44 1024.9
20220930043558 11 166 0.0 3.2 0.00 0.00 0.00 43 1024.9
20220930043101 11 148 0.0 1.6 0.00 0.00 0.00 44 1025.1
20220930042605 12 0 0.0 1.6 0.00 0.00 0.00 43 1025.0
20220930042100 12 0 0.0 1.6 0.00 0.00 0.00 43 1025.1
20220930041559 12 0 0.0 3.2 0.00 0.00 0.00 42 1025.1
20220930041056 12 0 0.0 3.2 0.00 0.00 0.00 42 1025.1
20220930040558 12 141 1.6 4.8 0.00 0.00 0.00 43 1024.9
20220930040109 12 0 1.6 4.8 0.00 0.00 0.00 42 1025.0
20220930035559 13 156 0.0 3.2 0.00 0.00 0.00 41 1024.9
20220930035102 13 0 0.0 8.0 0.00 0.00 0.00 43 1025.0
20220930034607 13 0 3.2 8.0 0.00 0.00 0.00 43 1024.7
20220930034059 13 45 0.0 3.2 0.00 0.00 0.00 42 1024.7
20220930033602 14 45 0.0 3.2 0.00 0.00 0.00 42 1024.7
20220930033102 15 57 0.0 1.6 0.00 0.00 0.00 39 1024.6
20220930032558 15 0 0.0 1.6 0.00 0.00 0.00 38 1024.6
20220930032058 15 0 0.0 1.6 0.00 0.00 0.00 38 1024.6
20220930031557 15 0 0.0 1.6 0.00 0.00 0.00 39 1024.7
20220930031058 15 0 0.0 1.6 0.00 0.00 0.00 39 1024.6
20220930030559 15 0 0.0 1.6 0.00 0.00 0.00 41 1024.7
20220930030059 16 0 0.0 1.6 0.00 0.00 0.00 39 1024.6
20220930025559 16 0 0.0 1.6 0.00 0.00 0.00 38 1024.6
20220930025058 16 0 0.0 4.8 0.00 0.00 0.00 37 1024.6
20220930024618 16 175 0.0 4.8 0.00 0.00 0.00 34 1024.5
20220930024058 16 0 1.6 3.2 0.00 0.00 0.00 33 1024.4
20220930023559 16 0 0.0 4.8 0.00 0.00 0.00 33 1024.3
20220930023100 16 130 1.6 4.8 0.00 0.00 0.00 32 1024.3
20220930022555 17 110 1.6 4.8 0.00 0.00 0.00 32 1024.4
20220930022058 17 145 0.0 4.8 0.00 0.00 0.00 32 1024.3
20220930021607 17 125 0.0 4.8 0.00 0.00 0.00 31 1024.2
20220930021058 17 46 1.6 3.2 0.00 0.00 0.00 31 1024.2
20220930020556 17 266 0.0 3.2 0.00 0.00 0.00 34 1024.1
20220930020137 18 0 0.0 16.1 0.00 0.00 0.00 34 1024.0
20220930015555 18 240 3.2 16.1 0.00 0.00 0.00 34 1023.9
20220930015058 18 31 4.8 16.1 0.00 0.00 0.00 32 1023.8
20220930014600 18 0 1.6 3.2 0.00 0.00 0.00 28 1023.7
20220930014109 18 0 0.0 3.2 0.00 0.00 0.00 28 1023.7
20220930013601 19 0 0.0 1.6 0.00 0.00 0.00 28 1023.7
20220930013104 19 0 0.0 1.6 0.00 0.00 0.00 27 1023.6
20220930012558 20 0 0.0 1.6 0.00 0.00 0.00 26 1023.5
20220930012100 20 0 0.0 1.6 0.00 0.00 0.00 26 1023.5
20220930011557 20 0 0.0 1.6 0.00 0.00 0.00 26 1023.5
20220930011105 20 31 0.0 3.2 0.00 0.00 0.00 26 1023.5
20220930010602 21 0 0.0 4.8 0.00 0.00 0.00 25 1023.5
20220930010100 21 0 0.0 4.8 0.00 0.00 0.00 25 1023.5
20220930005605 22 155 0.0 4.8 0.00 0.00 0.00 24 1023.3
20220930005057 22 0 0.0 4.8 0.00 0.00 0.00 23 1023.5
20220930004618 22 0 0.0 4.8 0.00 0.00 0.00 22 1023.5
20220930004057 23 18 0.0 4.8 0.00 0.00 0.00 22 1023.5
20220930003557 23 0 0.0 1.6 0.00 0.00 0.00 22 1023.4
20220930003106 23 0 0.0 11.3 0.00 0.00 0.00 21 1023.4
20220930002557 24 0 1.6 11.3 0.00 0.00 0.00 21 1023.6
20220930002100 24 221 1.6 9.7 0.00 0.00 0.00 20 1023.5
20220930001557 24 186 0.0 9.7 0.00 0.00 0.00 20 1023.5
20220930001058 25 0 1.6 9.7 0.00 0.00 0.00 20 1023.5
20220930000558 25 0 0.0 8.0 0.00 0.00 0.00 19 1023.6
20220930000102 25 246 0.0 8.0 0.00 0.00 0.00 19 1023.5
20220929235558 25 0 1.6 8.0 0.00 0.00 0.00 20 1023.5
20220929235058 25 245 1.6 8.0 0.00 0.00 0.00 19 1023.5
20220929234608 25 0 0.0 6.4 0.00 0.00 0.00 19 1023.5
20220929234058 25 0 0.0 4.8 0.00 0.00 0.00 19 1023.5
20220929233558 25 0 1.6 4.8 0.00 0.00 0.00 18 1023.6
20220929233102 26 354 0.0 4.8 0.00 0.00 0.00 18 1023.7
20220929232601 26 101 0.0 8.0 0.00 0.00 0.00 19 1023.7
20220929232056 25 307 1.6 8.0 0.00 0.00 0.00 18 1023.8
20220929231609 25 322 1.6 8.0 0.00 0.00 0.00 19 1024.0
20220929231100 25 298 3.2 8.0 0.00 0.00 0.00 16 1023.9
20220929230556 25 304 1.6 6.4 0.00 0.00 0.00 17 1023.8
20220929230148 25 0 1.6 6.4 0.00 0.00 0.00 16 1023.9
20220929225559 25 15 0.0 4.8 0.00 0.00 0.00 16 1023.8
20220929225056 25 43 1.6 8.0 0.00 0.00 0.00 16 1023.9
20220929224600 25 245 1.6 8.0 0.00 0.00 0.00 16 1023.9
20220929224059 25 98 0.0 16.1 0.00 0.00 0.00 16 1024.0
20220929223554 25 142 0.0 16.1 0.00 0.00 0.00 16 1024.0
20220929223059 24 78 8.0 16.1 0.00 0.00 0.00 17 1024.0
20220929222557 24 143 6.4 14.5 0.00 0.00 0.00 16 1024.0
20220929222058 24 36 4.8 17.7 0.00 0.00 0.00 17 1024.0
20220929221610 24 104 8.0 20.9 0.00 0.00 0.00 17 1024.0
20220929221058 23 47 9.7 24.1 0.00 0.00 0.00 16 1024.0
20220929220557 24 94 8.0 24.1 0.00 0.00 0.00 17 1024.1
20220929220102 24 31 8.0 17.7 0.00 0.00 0.00 16 1024.0
20220929215555 24 71 8.0 19.3 0.00 0.00 0.00 17 1024.1
20220929215105 24 41 8.0 20.9 0.00 0.00 0.00 17 1024.1
20220929214616 24 87 8.0 24.1 0.00 0.00 0.00 17 1024.2
20220929214058 24 77 12.9 24.1 0.00 0.00 0.00 16 1024.2
20220929213558 24 172 8.0 20.9 0.00 0.00 0.00 17 1024.2
20220929213107 24 41 11.3 20.9 0.00 0.00 0.00 16 1024.2
20220929212603 24 0 4.8 17.7 0.00 0.00 0.00 16 1024.2
20220929212102 24 122 9.7 22.5 0.00 0.00 0.00 16 1024.4
20220929211601 24 88 9.7 22.5 0.00 0.00 0.00 16 1024.5
20220929211057 24 65 11.3 22.5 0.00 0.00 0.00 17 1024.5
20220929210557 24 14 4.8 19.3 0.00 0.00 0.00 17 1024.6
20220929210124 24 91 8.0 17.7 0.00 0.00 0.00 16 1024.6
20220929205600 24 333 6.4 17.7 0.00 0.00 0.00 16 1024.7
20220929205055 24 70 8.0 22.5 0.00 0.00 0.00 17 1024.8
20220929204649 24 84 8.0 22.5 0.00 0.00 0.00 17 1024.9
20220929204057 25 67 8.0 20.9 0.00 0.00 0.00 18 1025.0
20220929203559 25 341 6.4 17.7 0.00 0.00 0.00 16 1025.0
20220929203116 25 31 4.8 16.1 0.00 0.00 0.00 15 1025.1
20220929202558 25 0 4.8 16.1 0.00 0.00 0.00 15 1025.1
20220929202100 25 36 6.4 14.5 0.00 0.00 0.00 14 1025.1
20220929201600 25 302 4.8 14.5 0.00 0.00 0.00 14 1025.2
20220929201057 25 274 3.2 6.4 0.00 0.00 0.00 14 1025.3
20220929200559 26 0 1.6 12.9 0.00 0.00 0.00 13 1025.4
20220929200105 25 291 1.6 12.9 0.00 0.00 0.00 14 1025.5
20220929195600 25 39 4.8 12.9 0.00 0.00 0.00 14 1025.7
20220929195059 25 252 3.2 12.9 0.00 0.00 0.00 13 1025.7
20220929194637 25 214 1.6 11.3 0.00 0.00 0.00 15 1025.7
20220929194102 25 17 6.4 11.3 0.00 0.00 0.00 14 1025.9
20220929193556 25 8 3.2 9.7 0.00 0.00 0.00 14 1026.2
20220929193130 25 4 3.2 11.3 0.00 0.00 0.00 15 1026.2
20220929192558 25 332 1.6 12.9 0.00 0.00 0.00 16 1026.2
20220929192059 24 235 8.0 12.9 0.00 0.00 0.00 17 1026.2
20220929191606 25 351 1.6 11.3 0.00 0.00 0.00 16 1026.2
20220929191059 24 315 3.2 8.0 0.00 0.00 0.00 17 1026.3
20220929190600 24 304 3.2 9.7 0.00 0.00 0.00 16 1026.2
20220929190107 23 310 1.6 9.7 0.00 0.00 0.00 18 1026.5
20220929185558 24 279 3.2 8.0 0.00 0.00 0.00 17 1026.6
20220929185100 24 272 1.6 9.7 0.00 0.00 0.00 17 1026.6
20220929184600 24 267 1.6 9.7 0.00 0.00 0.00 19 1026.6
20220929184057 23 34 4.8 9.7 0.00 0.00 0.00 20 1026.8
20220929183600 23 37 3.2 9.7 0.00 0.00 0.00 19 1026.9
20220929183114 23 291 3.2 8.0 0.00 0.00 0.00 18 1026.9
20220929182607 23 60 1.6 8.0 0.00 0.00 0.00 19 1027.0
20220929182057 22 314 0.0 8.0 0.00 0.00 0.00 20 1027.0
20220929181605 22 31 4.8 8.0 0.00 0.00 0.00 20 1027.1
20220929181100 23 0 0.0 6.4 0.00 0.00 0.00 20 1027.1
20220929180600 23 253 0.0 6.4 0.00 0.00 0.00 20 1027.3
20220929180101 23 233 0.0 4.8 0.00 0.00 0.00 19 1027.4
20220929175559 22 0 0.0 8.0 0.00 0.00 0.00 21 1027.4
20220929175103 22 297 1.6 8.0 0.00 0.00 0.00 21 1027.5
20220929174605 22 56 1.6 6.4 0.00 0.00 0.00 21 1027.6
20220929174101 22 282 0.0 6.4 0.00 0.00 0.00 21 1027.6
20220929173557 21 291 0.0 6.4 0.00 0.00 0.00 21 1027.5
20220929173133 21 14 1.6 6.4 0.00 0.00 0.00 23 1027.7
20220929172559 21 284 1.6 6.4 0.00 0.00 0.00 25 1027.7
20220929172105 21 24 3.2 6.4 0.00 0.00 0.00 23 1027.9
20220929171604 21 7 0.0 8.0 0.00 0.00 0.00 24 1028.0